COSMOS 336

导读

COSMOS 336是苏联(CIS)“宇宙”系列卫星之一,于1970年4月25日发射入轨。苏联“宇宙”系列卫星涵盖军用侦察、科学探测等多类任务,通过统一编号隐藏卫星具体用途,冷战时期服务于苏联空间战略部署。作为世界上规模最大的卫星系列成员,COSMOS 336延续了该系列批量发射、功能多元的特点,是苏联早期航天活动的重要组成。

基本信息
目录编号:
4383
目录名称:
COSMOS 336
国际标识:
1970-036A
轨道中心:
EARTH
卫星名称:
COSMOS 336
卫星全名:
--
卫星状态:
在轨 (已飞行20505 天)
发射日期:
1970-04-25 UTC
国别 :
俄罗斯(独联体) (CIS)
星等 :
--
轨道信息
数据来源 国际轨道数据
星历时间: 2026-06-15T05:03:02+0800
6小时前
查看轨道信息
半长轴: 7852.421km
偏心率: 0.0014411
轨道倾角: 74.030°
近地点辐角 140.611°
升交点赤经 357.200°
平近点角 323.941°
近地点: 1462.967km
远地点: 1485.601km
周期: 115.416分钟
每日圈数: 12.476634
详细信息
使用方式:
暂无
2D轨道图
3D轨道图
轨道高度分析图
轨道倾角分析图
轨道综合分析图
查看轨道综合分析图